Flag for U.S.A. Weather past 2 weeks in Mountain View, California, U.S.A.

Now
63 °F

Overcast.


Feels Like: 63 °F
Forecast: 59 / 78 °F
Wind: 3 mph from Northwest

Location: Moffett Field

Current Time: Aug 28, 2014 at 6:42:40 AM

Latest Report: Aug 28, 2014 at 5:56 AM


Visibility: 10 mi

Pressure: 30.07 "Hg

Humidity: 84%

Dew point: 58 °F

Location of Mountain ViewLocation

Historic Weather in Mountain View — Graph

°F

Mountain View temperature yesterday

Maximum temperature yesterday: 80 °F (at 2:56 PM)
Minimum temperature yesterday: 61 °F (at 5:56 AM)
Average temperature yesterday: 69 °F

Past Weeks' High & Low Weather Summary

 TemperatureHumidityPressure
High80 °F (Aug 27, 2:56 PM)90% (Aug 28, 2:56 AM)30.08 "Hg (Aug 28, 2:56 AM)
Low59 °F (Aug 26, 5:56 AM)46% (Aug 20, 1:56 PM)29.80 "Hg (Aug 19, 4:56 PM)
Average67 °F71%29.94 "Hg
* Reported Aug 13 5:56 AM — Aug 28 5:56 AM, Mountain View, Weather by CustomWeather, © 2014

Note: Actual official high and low records may vary slightly from our data, if they occured in-between our weather recording intervals... More about our weather records

Advertising

Mountain View weather history for previous 24 hours

 ConditionsComfort  
Time TempWeatherWind HumidityBarometerVisibility
5:56 AM
Aug 28
63 °FOvercast.3 mph84%30.07 "Hg10 mi
4:56 AM63 °FOvercast.No wind84%30.07 "Hg10 mi
3:56 AM62 °FOvercast.3 mph86%30.06 "Hg10 mi
2:56 AM61 °FClear.No wind90%30.07 "Hg10 mi
1:56 AM62 °FClear.No wind83%30.07 "Hg10 mi
12:56 AM63 °FClear.5 mph84%30.08 "Hg10 mi
11:56 PM
Aug 27
64 °FClear.7 mph81%30.08 "Hg10 mi
10:56 PM64 °FClear.8 mph81%30.08 "Hg10 mi
9:56 PM65 °FClear.6 mph78%30.07 "Hg10 mi
8:56 PM66 °FClear.8 mph78%30.05 "Hg10 mi
7:56 PM67 °FSunny.7 mph76%30.03 "Hg10 mi
6:56 PM70 °FSunny.9 mph68%30.01 "Hg10 mi
5:56 PM74 °FSunny.20 mph64%30.01 "Hg10 mi
4:56 PM76 °FSunny.15 mph56%30.00 "Hg10 mi
3:56 PM78 °FSunny.13 mph52%30.00 "Hg10 mi
2:56 PM80 °FSunny.13 mph47%30.01 "Hg10 mi
1:56 PM79 °FSunny.12 mph47%30.03 "Hg10 mi
12:56 PM77 °FSunny.9 mph50%30.04 "Hg10 mi
11:56 AM75 °FSunny.6 mph60%30.06 "Hg10 mi
10:56 AM72 °FSunny.5 mph64%30.07 "Hg10 mi
9:56 AM70 °FSunny.5 mph68%30.08 "Hg10 mi
8:56 AM67 °FSunny.No wind76%30.07 "Hg10 mi
7:56 AM65 °FSunny.No wind78%30.07 "Hg10 mi
6:56 AM63 °FClear.No wind81%30.06 "Hg10 mi
Weather by CustomWeather, © 2014

See weather overviewHow to use our weather pages